Simultaneous Nadir Overpasses (SNOs) Predictions

Prediction of SNOs near US between NOAA-19 and NPP Satellite Orbit:

Table of predicted SNOs near US for the next 10.0 days since TLE Epoch: 7/13/2012
<
Index Date (NOAA-19) Time (NOAA-19) NOAA-19 Lat,Lon Date (NPP) Time (NPP) NPP Lat,Lon Distance(km) Time Diff (sec)
1 07/15/2012 09:15:00 49.92,-104.93 07/15/2012 09:18:46 50.56,-108.18 241.76 226
2 07/15/2012 17:22:01 46.37, -66.67 07/15/2012 17:23:04 45.92, -69.00 186.12 63
3 07/15/2012 19:04:41 48.36, -93.02 07/15/2012 19:05:09 47.95, -95.19 167.47 28
4 07/15/2012 20:47:14 49.95,-119.25 07/15/2012 20:47:07 49.56,-121.26 150.99 7
5 07/16/2012 07:25:55 36.81, -81.62 07/16/2012 07:22:06 37.13, -83.07 133.89 229
6 07/16/2012 09:08:35 34.80,-107.76 07/16/2012 09:04:11 35.08,-109.07 123.65 264
7 07/16/2012 18:54:22
